[[{"header":{"parameterUnit":"m.s-1","parameterCategory":2,"la1":30.2991,"la2":30.254,"lo1":-89.0895,"lo2":-89.0444,"dy":0.0017,"dx":0.0017,"nx":28,"ny":28,"refTime":"2023-10-23T03:00:00:Z","depth":"0","parameterNumber":2,"parameterNumberName":"U-component_of_CURRENTS"},"data":[0,0,0,0,0,0,0,0,0,0,0,0,0,0,0,0,0,0,0,0,0,0,0,0,0,0,0,0,0,0,0,0,0,0,0,0,0,0,0,0,0,0,0,0,0,0,0,0,0,0,0,0,0,0,0,0,0,0,-0.3027,-0.3027,0,-0.2979,-0.2978,-0.2976,-0.2904,-0.2903,-0.2903,-0.2902,-0.2733,-0.2729,-0.2725,0,0,0,0,0,0,0,0,0,0,0,0,0,-0.2976,-0.2977,-0.3027,-0.3027,-0.3027,-0.2979,-0.2978,-0.2976,-0.2904,-0.2903,-0.2903,-0.2902,-0.2734,-0.273,-0.2725,0,0,0,0,0,0,0,0,0,0,0,0,0,-0.2963,-0.2978,-0.3027,-0.2991,-0.2988,-0.2979,-0.2978,-0.2976,-0.2904,-0.2903,-0.2902,-0.2902,-0.2736,-0.273,-0.2724,-0.2707,0,0,-0.2706,-0.2704,0,0,0,0,0,0,0,0,-0.2964,-0.2964,-0.2996,-0.2993,-0.299,-0.2953,-0.2898,-0.2882,-0.2905,-0.2928,-0.2902,-0.2901,-0.2801,-0.279,-0.2774,-0.2699,-0.2691,-0.2706,-0.2702,-0.27,-0.2698,0,0,0,0,0,0,0,-0.2965,-0.2966,-0.3001,-0.2996,-0.2993,-0.295,-0.2947,-0.2894,-0.2863,-0.2926,-0.2923,-0.2929,-0.2797,-0.278,-0.2769,-0.2689,-0.2706,-0.2701,-0.2697,-0.2695,-0.2624,-0.2625,0,0,0,0,0,0,-0.2991,-0.2967,-0.3002,-0.3,-0.2983,-0.2952,-0.2948,-0.296,-0.2866,-0.2853,-0.293,-0.2926,-0.279,-0.2776,-0.2763,-0.2767,-0.27,-0.2694,-0.2691,-0.2622,-0.2624,-0.2626,0,0,0,0,0,0,-0.2991,-0.2995,-0.3004,-0.2987,-0.2987,-0.2955,-0.2968,-0.2959,-0.2945,-0.2871,-0.2855,-0.2925,-0.2789,-0.2771,-0.2733,-0.2758,-0.2692,-0.2686,-0.262,-0.2623,-0.2625,-0.2754,0,0,0,0,0,0,-0.2989,-0.2995,-0.3004,-0.299,-0.2989,-0.302,-0.2969,-0.2959,-0.2954,-0.2948,-0.2862,-0.2845,-0.2787,-0.2743,-0.2727,-0.2749,-0.2682,-0.2618,-0.2621,-0.2624,-0.2748,-0.276,-0.2771,0,0,0,0,0,-0.2988,-0.3023,-0.3005,-0.3009,-0.3005,-0.3022,-0.3017,-0.2985,-0.2955,-0.2964,-0.2905,-0.2848,-0.2751,-0.2739,-0.2721,-0.2741,-0.2617,-0.262,-0.2624,-0.2742,-0.2758,-0.2771,0,0,0,0,0,0,-0.2999,-0.3019,-0.2999,-0.3035,-0.3034,-0.3013,-0.3021,-0.2996,-0.2956,-0.2947,-0.2861,-0.2841,-0.2819,-0.2766,-0.2755,-0.2732,-0.2677,-0.2678,-0.2774,-0.2788,-0.2799,-0.281,-0.2677,0,0,0,0,0,-0.3009,-0.3043,-0.3042,-0.3068,-0.3073,-0.3043,-0.3042,-0.3028,-0.2999,-0.2981,-0.2922,-0.2864,-0.2821,-0.2794,-0.2747,-0.273,-0.2673,-0.2734,-0.2747,-0.2757,-0.2756,-0.2738,-0.2748,-0.2638,-0.2638,-0.2638,0,0,-0.302,-0.3036,-0.3052,-0.3073,-0.3064,-0.3088,-0.3039,-0.3059,-0.307,-0.2968,-0.2956,-0.29,-0.2826,-0.2812,-0.2797,-0.2769,-0.2752,-0.2762,-0.2771,-0.2763,-0.2743,-0.2753,-0.2763,-0.2641,-0.264,-0.264,0,0,-0.3078,-0.3073,-0.3124,-0.3132,-0.3146,-0.313,-0.3142,-0.3129,-0.3114,-0.3105,-0.3036,-0.2999,-0.2932,-0.2889,-0.2856,-0.2906,-0.2817,-0.2894,-0.2958,-0.2943,-0.2951,-0.2958,-0.2869,-0.2867,-0.29,-0.29,-0.29,0,-0.3084,-0.3141,-0.3138,-0.3185,-0.3193,-0.3155,-0.3195,-0.3185,-0.3159,-0.3153,-0.3121,-0.3035,-0.297,-0.2947,-0.2963,-0.2931,-0.2886,-0.291,-0.2959,-0.2965,-0.297,-0.2877,-0.2873,-0.2907,-0.2906,-0.2905,-0.2905,0,-0.3182,-0.3213,-0.3244,-0.3284,-0.3295,-0.3325,-0.3316,-0.3319,-0.3288,-0.3269,-0.3246,-0.3165,-0.3108,-0.3094,-0.3035,-0.3042,-0.2983,-0.2978,-0.2924,-0.2989,-0.2886,-0.288,-0.2916,-0.2914,-0.2912,-0.291,0,0,-0.3218,-0.3296,-0.3304,-0.3311,-0.3346,-0.3351,-0.3394,-0.3404,-0.339,-0.3384,-0.336,-0.3317,-0.3263,-0.3222,-0.3151,-0.3134,-0.3112,-0.3077,-0.3073,-0.2989,-0.3027,-0.283,-0.2803,-0.3128,-0.3128,-0.3129,-0.2929,0,-0.328,-0.3373,-0.3403,-0.3448,-0.3472,-0.3464,-0.3479,-0.3485,-0.3462,-0.3428,-0.3389,-0.3327,-0.3316,-0.3254,-0.3258,-0.3135,-0.3108,-0.3163,-0.2974,-0.2967,-0.2788,-0.2795,-0.2686,-0.2487,-0.2922,-0.2921,-0.292,0,-0.336,-0.3398,-0.3474,-0.3484,-0.3491,-0.3512,-0.3499,-0.3511,-0.3492,-0.3459,-0.3449,-0.3393,-0.335,-0.3316,-0.3218,-0.3257,-0.3158,-0.3077,-0.3068,-0.2835,-0.276,-0.2498,-0.2458,-0.2446,-0.291,-0.2911,-0.2911,0,-0.3358,-0.3433,-0.3481,-0.3494,-0.3516,-0.3532,-0.3529,-0.3525,-0.3474,-0.3462,-0.3372,-0.3402,-0.3288,-0.3278,-0.312,-0.3176,-0.2965,-0.302,-0.2752,-0.2734,-0.2574,-0.2541,-0.25,-0.2955,-0.2955,-0.2956,-0.2956,0,-0.3398,-0.3421,-0.3473,-0.3487,-0.3456,-0.3513,-0.3466,-0.3461,-0.3419,-0.3289,-0.3357,-0.3203,-0.3272,-0.3154,-0.3107,-0.2867,-0.2959,-0.2739,-0.2677,-0.2609,-0.2583,-0.2508,-0.2547,-0.2948,-0.295,-0.2951,-0.2953,0,-0.3374,-0.3437,-0.3442,-0.3469,-0.345,-0.3422,-0.3353,-0.3273,-0.3284,-0.3105,-0.3077,-0.3027,-0.287,-0.2875,-0.2768,-0.2737,-0.2529,-0.2487,-0.2359,-0.2285,-0.2069,-0.2118,-0.1954,-0.1907,-0.2205,-0.2199,-0.2194,0,-0.3371,-0.3391,-0.3371,-0.3271,-0.3264,-0.3221,-0.3116,-0.3164,-0.3067,-0.2923,-0.278,-0.2648,-0.2461,-0.2263,-0.2222,-0.2115,-0.219,-0.1952,-0.2059,-0.2011,-0.2023,-0.2083,-0.2065,-0.1888,-0.188,-0.1875,-0.187,0,-0.3263,-0.3263,-0.3191,-0.3046,-0.2929,-0.2838,-0.2742,-0.2687,-0.2669,-0.2543,-0.2317,-0.2193,-0.1972,-0.1827,-0.172,-0.167,-0.1916,-0.1822,-0.1843,-0.1811,-0.1807,-0.1744,-0.2027,-0.1818,-0.1823,-0.1827,-0.183,-0.1832,-0.3055,-0.2968,-0.2842,-0.2676,-0.2558,-0.2435,-0.2312,-0.2239,-0.2111,-0.1898,-0.1927,-0.1676,-0.1596,-0.1426,-0.1362,-0.1278,-0.1412,-0.1324,-0.1392,-0.1459,-0.1413,-0.1523,-0.1207,-0.1209,-0.121,-0.1211,-0.1212,0,-0.2707,-0.2603,-0.2444,-0.2233,-0.2045,-0.2111,-0.1976,-0.1847,-0.165,-0.1514,-0.136,-0.124,-0.1098,-0.1062,-0.0984,-0.0931,-0.0998,-0.095,-0.1089,-0.1097,-0.1236,-0.1224,-0.0811,-0.0811,-0.0811,-0.0811,-0.0811,-0.0811,-0.2462,-0.2202,-0.2156,-0.1755,-0.1641,-0.1406,-0.1332,-0.1215,-0.112,-0.0889,-0.0782,-0.0755,-0.0841,-0.0905,-0.0845,-0.081,-0.0871,-0.0791,-0.0868,-0.106,-0.1105,-0.1148,-0.1148,-0.0726,-0.0726,-0.0707,-0.0707,-0.0707]},{"header":{"parameterUnit":"m.s-1","parameterCategory":2,"la1":30.2991,"la2":30.254,"lo1":-89.0895,"lo2":-89.0444,"dy":0.0017,"dx":0.0017,"nx":28,"ny":28,"refTime":"2023-10-23T03:00:00:Z","depth":"0","parameterNumber":3,"parameterNumberName":"V-component_of_CURRENTS"},"data":[0,0,0,0,0,0,0,0,0,0,0,0,0,0,0,0,0,0,0,0,0,0,0,0,0,0,0,0,0,0,0,0,0,0,0,0,0,0,0,0,0,0,0,0,0,0,0,0,0,0,0,0,0,0,0,0,0,0,0.0285,0.0286,0,0.0405,0.0407,0.0408,0.0418,0.0417,0.0416,0.0414,0.0532,0.0537,0.0541,0,0,0,0,0,0,0,0,0,0,0,0,0,0.0201,0.0202,0.0284,0.0286,0.0287,0.0405,0.0407,0.0409,0.0419,0.0417,0.0415,0.0414,0.0531,0.0536,0.0541,0,0,0,0,0,0,0,0,0,0,0,0,0,0.0271,0.0202,0.0284,0.0306,0.0309,0.0405,0.0407,0.0409,0.0419,0.0417,0.0415,0.0413,0.0529,0.0536,0.0542,0.0623,0,0,0.0562,0.0565,0,0,0,0,0,0,0,0,0.0267,0.0274,0.0302,0.0305,0.0309,0.0394,0.0421,0.048,0.0419,0.0378,0.0414,0.0412,0.0487,0.0497,0.0525,0.0629,0.0634,0.0563,0.0567,0.057,0.0572,0,0,0,0,0,0,0,0.0262,0.027,0.0333,0.0303,0.0308,0.0358,0.0364,0.0433,0.0443,0.0381,0.0382,0.0396,0.0489,0.0519,0.0528,0.0636,0.0563,0.0568,0.0573,0.0575,0.081,0.0812,0,0,0,0,0,0,0.0242,0.0265,0.0329,0.0336,0.0282,0.036,0.0368,0.0369,0.0442,0.0451,0.0397,0.0396,0.0508,0.052,0.0532,0.062,0.057,0.0576,0.058,0.0808,0.081,0.0813,0,0,0,0,0,0,0.0239,0.0246,0.0324,0.0304,0.0317,0.0363,0.0365,0.0373,0.0399,0.0454,0.0463,0.0415,0.0507,0.0523,0.0598,0.0625,0.0579,0.0585,0.0805,0.0809,0.0812,0.0804,0,0,0,0,0,0,0.0236,0.0244,0.0239,0.0302,0.0317,0.038,0.0368,0.0376,0.041,0.0409,0.0473,0.0481,0.0507,0.0589,0.0605,0.0633,0.059,0.0802,0.0807,0.0811,0.0801,0.0807,0.0811,0,0,0,0,0,0.0232,0.0238,0.0237,0.0245,0.0308,0.0381,0.0395,0.0421,0.0413,0.0435,0.0478,0.0479,0.0627,0.0596,0.0615,0.0645,0.08,0.0805,0.081,0.0799,0.0806,0.0811,0,0,0,0,0,0,0.0207,0.0241,0.0242,0.0257,0.0312,0.0382,0.0404,0.0427,0.0481,0.0474,0.0517,0.0531,0.0604,0.0638,0.0603,0.0728,0.0712,0.0721,0.0697,0.0704,0.0709,0.067,0.0595,0,0,0,0,0,0.0197,0.0198,0.0256,0.0268,0.0294,0.035,0.0381,0.0404,0.046,0.048,0.0529,0.0584,0.0646,0.068,0.0739,0.0818,0.0829,0.085,0.0855,0.0858,0.0842,0.0888,0.0894,0.083,0.083,0.083,0,0,0.0181,0.0208,0.0203,0.0261,0.0301,0.0345,0.0364,0.0414,0.0449,0.0489,0.0552,0.0605,0.0672,0.0749,0.0785,0.0776,0.0888,0.0865,0.0867,0.0849,0.0893,0.0899,0.0904,0.0833,0.0833,0.0832,0,0,0.0167,0.0186,0.0184,0.0234,0.0297,0.0343,0.0356,0.0434,0.0465,0.0544,0.0575,0.0643,0.0745,0.0794,0.0831,0.0907,0.0911,0.0931,0.0927,0.0972,0.0976,0.098,0.1009,0.1016,0.0934,0.0934,0.0934,0,0.0143,0.0152,0.0202,0.0234,0.0265,0.0338,0.0361,0.0425,0.0516,0.0549,0.0557,0.0706,0.0763,0.0851,0.0873,0.0915,0.0931,0.0892,0.0973,0.0978,0.0982,0.1011,0.1018,0.0935,0.0935,0.0935,0.0935,0,0.0132,0.0149,0.0166,0.0212,0.0266,0.0302,0.0391,0.0449,0.0496,0.0553,0.0649,0.0736,0.0811,0.0857,0.0888,0.0958,0.0958,0.0969,0.0944,0.0987,0.1016,0.1024,0.0935,0.0935,0.0935,0.0935,0,0,0.0023,0.0127,0.0125,0.0144,0.025,0.0287,0.0369,0.0453,0.0488,0.0594,0.0638,0.0772,0.0807,0.0852,0.0911,0.096,0.1016,0.0971,0.0974,0.0975,0.11,0.1055,0.1059,0.1034,0.1035,0.1036,0.1111,0,-0.0018,0.0017,0.0091,0.0127,0.015,0.0258,0.0323,0.0417,0.05,0.0571,0.0678,0.0748,0.0811,0.084,0.0904,0.0986,0.1034,0.0993,0.108,0.1082,0.1017,0.1066,0.1012,0.1069,0.1118,0.1119,0.112,0,-0.008,-0.0044,-0.0027,0.0071,0.009,0.0131,0.0228,0.0302,0.044,0.0505,0.0604,0.0684,0.0794,0.0822,0.098,0.0948,0.1016,0.1078,0.1083,0.1041,0.1051,0.1038,0.1081,0.1164,0.1132,0.1131,0.113,0,-0.0223,-0.0133,-0.0133,-0.0101,0.0026,0.0054,0.0126,0.0263,0.0347,0.0451,0.0514,0.0641,0.072,0.082,0.0968,0.097,0.1115,0.1136,0.1163,0.1161,0.113,0.1122,0.1238,0.1226,0.1226,0.1226,0.1225,0,-0.0317,-0.0317,-0.0203,-0.0209,-0.017,-0.006,0.0005,0.0097,0.0238,0.0352,0.0457,0.056,0.0723,0.0843,0.0945,0.1075,0.1104,0.116,0.1178,0.1128,0.112,0.1201,0.1238,0.1228,0.1228,0.1227,0.1227,0,-0.0476,-0.0409,-0.0388,-0.0281,-0.0238,-0.0217,-0.0031,0.0056,0.015,0.0297,0.0334,0.0521,0.0667,0.0812,0.0984,0.1056,0.1197,0.12,0.1119,0.1125,0.1206,0.1243,0.134,0.1384,0.1238,0.1237,0.1237,0,-0.0552,-0.0569,-0.046,-0.0393,-0.0341,-0.0258,-0.0145,-0.0001,0.0128,0.03,0.039,0.0526,0.0663,0.0858,0.0971,0.1099,0.1202,0.1142,0.1138,0.12,0.1258,0.1284,0.1317,0.111,0.1109,0.1107,0.1106,0,-0.0669,-0.0638,-0.0592,-0.0451,-0.034,-0.0197,-0.0039,0.0047,0.0242,0.0353,0.052,0.0591,0.0707,0.0823,0.0941,0.1019,0.1162,0.1119,0.122,0.1189,0.1189,0.1242,0.1068,0.1095,0.1096,0.1097,0.1098,0.1098,-0.0723,-0.0696,-0.058,-0.0429,-0.029,-0.0078,0.0049,0.0219,0.0408,0.0632,0.0643,0.0785,0.0736,0.0876,0.0961,0.1075,0.1103,0.1134,0.1182,0.121,0.1223,0.1004,0.1024,0.1025,0.1025,0.1026,0.1026,0,-0.0706,-0.0626,-0.0514,-0.0291,-0.0089,-0.0028,0.0203,0.0336,0.0558,0.0728,0.0857,0.0938,0.0965,0.0995,0.1058,0.1141,0.118,0.1208,0.1257,0.1297,0.1137,0.1102,0.1093,0.1093,0.1092,0.1092,0.1092,0.1092,-0.0673,-0.0545,-0.045,-0.0088,0.0064,0.0325,0.0463,0.0594,0.0723,0.0977,0.1134,0.1189,0.1159,0.1172,0.1275,0.1288,0.1421,0.1363,0.1485,0.1391,0.1389,0.1387,0.1365,0.1411,0.1411,0.1612,0.1614,0.1615]}],[{"header":{"parameterUnit":"m.s-1","parameterCategory":2,"la1":30.2991,"la2":30.254,"lo1":-89.0895,"lo2":-89.0444,"dy":0.0017,"dx":0.0017,"nx":28,"ny":28,"refTime":"2023-10-23T03:00:00:Z","depth":"2","parameterNumber":2,"parameterNumberName":"U-component_of_CURRENTS"},"data":[0,0,0,0,0,0,0,0,0,0,0,0,0,0,0,0,0,0,0,0,0,0,0,0,0,0,0,0,0,0,0,0,0,0,0,0,0,0,0,0,0,0,0,0,0,0,0,0,0,0,0,0,0,0,0,0,0,0,-0.2476,-0.2476,0,-0.2414,-0.2413,-0.2412,-0.235,-0.2349,-0.2349,-0.2349,-0.2225,-0.2223,-0.2219,0,0,0,0,0,0,0,0,0,0,0,0,0,-0.2389,-0.2391,-0.2476,-0.2476,-0.2476,-0.2414,-0.2413,-0.2412,-0.235,-0.2349,-0.2349,-0.2349,-0.2226,-0.2223,-0.2219,0,0,0,0,0,0,0,0,0,0,0,0,0,-0.2381,-0.2392,-0.2476,-0.2442,-0.2439,-0.2415,-0.2413,-0.2411,-0.235,-0.2349,-0.2349,-0.2349,-0.2228,-0.2223,-0.2219,-0.2198,0,0,-0.2205,-0.2203,0,0,0,0,0,0,0,0,-0.2382,-0.2384,-0.2447,-0.2445,-0.2441,-0.2395,-0.2337,-0.2339,-0.235,-0.2377,-0.2349,-0.2349,-0.2281,-0.2272,-0.2253,-0.2192,-0.2187,-0.2204,-0.2201,-0.2199,-0.2198,0,0,0,0,0,0,0,-0.2383,-0.2385,-0.2445,-0.2447,-0.2443,-0.2379,-0.2378,-0.2336,-0.2326,-0.2375,-0.2371,-0.2375,-0.2278,-0.2257,-0.2249,-0.2185,-0.2204,-0.22,-0.2197,-0.2196,-0.2085,-0.2085,0,0,0,0,0,0,-0.2412,-0.2387,-0.2447,-0.2444,-0.2417,-0.2382,-0.238,-0.2405,-0.2327,-0.2317,-0.2375,-0.2372,-0.2265,-0.2255,-0.2245,-0.22,-0.22,-0.2195,-0.2193,-0.2085,-0.2085,-0.2084,0,0,0,0,0,0,-0.2411,-0.2419,-0.245,-0.2417,-0.2417,-0.2385,-0.2412,-0.2404,-0.2386,-0.233,-0.2317,-0.2367,-0.2265,-0.2251,-0.2207,-0.2196,-0.2193,-0.2189,-0.2085,-0.2085,-0.2085,-0.2121,0,0,0,0,0,0,-0.2409,-0.242,-0.2438,-0.2421,-0.2421,-0.2447,-0.2413,-0.2403,-0.2392,-0.2387,-0.2319,-0.2307,-0.2263,-0.2214,-0.2202,-0.2189,-0.2185,-0.2085,-0.2085,-0.2085,-0.212,-0.2122,-0.2123,0,0,0,0,0,-0.2407,-0.2438,-0.2439,-0.2446,-0.2451,-0.2448,-0.2442,-0.2411,-0.2392,-0.2391,-0.2338,-0.2309,-0.2203,-0.221,-0.2196,-0.2182,-0.2086,-0.2085,-0.2085,-0.2119,-0.2121,-0.2123,0,0,0,0,0,0,-0.2404,-0.2435,-0.2436,-0.2474,-0.2468,-0.244,-0.2434,-0.2418,-0.2374,-0.2364,-0.2305,-0.2289,-0.2247,-0.2213,-0.2222,-0.215,-0.214,-0.2137,-0.2171,-0.2173,-0.2174,-0.2186,-0.2182,0,0,0,0,0,-0.2418,-0.245,-0.2459,-0.2486,-0.2488,-0.2462,-0.2454,-0.2439,-0.2405,-0.2386,-0.2336,-0.2282,-0.2234,-0.2204,-0.2161,-0.212,-0.211,-0.2103,-0.2105,-0.2107,-0.2107,-0.211,-0.2113,-0.2083,-0.2083,-0.2083,0,0,-0.2422,-0.2443,-0.246,-0.2487,-0.2474,-0.247,-0.2454,-0.2451,-0.2432,-0.2379,-0.2328,-0.2289,-0.2227,-0.218,-0.2158,-0.2149,-0.2106,-0.2106,-0.2108,-0.2107,-0.211,-0.2113,-0.2116,-0.2083,-0.2083,-0.2083,0,0,-0.2435,-0.2468,-0.249,-0.2492,-0.2496,-0.248,-0.2486,-0.2463,-0.2439,-0.2406,-0.2354,-0.2306,-0.2242,-0.2183,-0.2149,-0.2134,-0.2121,-0.2129,-0.2137,-0.2141,-0.2144,-0.2146,-0.2124,-0.2125,-0.2123,-0.2123,-0.2123,0,-0.2414,-0.2473,-0.249,-0.2501,-0.2505,-0.2488,-0.2495,-0.2465,-0.2425,-0.2409,-0.2398,-0.2303,-0.2238,-0.2176,-0.2159,-0.2136,-0.2143,-0.2134,-0.2145,-0.2147,-0.2149,-0.2126,-0.2126,-0.2125,-0.2125,-0.2125,-0.2125,0,-0.2447,-0.248,-0.249,-0.2504,-0.2507,-0.2515,-0.2495,-0.2477,-0.2455,-0.2428,-0.2386,-0.2312,-0.2262,-0.2226,-0.2178,-0.2151,-0.2153,-0.2155,-0.2145,-0.2155,-0.2129,-0.2129,-0.2128,-0.2127,-0.2126,-0.2126,0,0,-0.241,-0.2494,-0.2494,-0.2506,-0.2518,-0.2514,-0.25,-0.2483,-0.246,-0.243,-0.2409,-0.2315,-0.23,-0.2259,-0.2204,-0.218,-0.2169,-0.2175,-0.2174,-0.2161,-0.2178,-0.1988,-0.1968,-0.2198,-0.2198,-0.2198,-0.2151,0,-0.2412,-0.2458,-0.2501,-0.2511,-0.2524,-0.2526,-0.2508,-0.2489,-0.2465,-0.2432,-0.2384,-0.2337,-0.2307,-0.2278,-0.2261,-0.2177,-0.2173,-0.2181,-0.2163,-0.2161,-0.1998,-0.1962,-0.1856,-0.1788,-0.215,-0.215,-0.215,0,-0.2409,-0.2454,-0.2495,-0.2525,-0.2529,-0.2528,-0.2514,-0.2495,-0.2459,-0.2446,-0.243,-0.2397,-0.2328,-0.2322,-0.2245,-0.2264,-0.2236,-0.2188,-0.2186,-0.1995,-0.1968,-0.1838,-0.1773,-0.2148,-0.2148,-0.2148,-0.2149,0,-0.2358,-0.2425,-0.2468,-0.2481,-0.2518,-0.2527,-0.2524,-0.2501,-0.2445,-0.2454,-0.2402,-0.2405,-0.2315,-0.2341,-0.2196,-0.2259,-0.2099,-0.218,-0.1997,-0.1984,-0.1875,-0.1849,-0.2177,-0.2177,-0.2177,-0.2177,-0.2177,0,-0.2305,-0.2323,-0.2455,-0.2462,-0.2468,-0.2514,-0.2473,-0.2476,-0.2439,-0.2349,-0.2398,-0.2299,-0.2314,-0.2205,-0.2203,-0.2026,-0.2111,-0.1977,-0.195,-0.1878,-0.1854,-0.2159,-0.2157,-0.2175,-0.2175,-0.2176,-0.2176,0,-0.2166,-0.2274,-0.2319,-0.2421,-0.2436,-0.2427,-0.2389,-0.2338,-0.2341,-0.2227,-0.2219,-0.2164,-0.2052,-0.2011,-0.1958,-0.1926,-0.1855,-0.1786,-0.1664,-0.1622,-0.1772,-0.1773,-0.1666,-0.1658,-0.1652,-0.1647,-0.1643,0,-0.2082,-0.2117,-0.2257,-0.2265,-0.2296,-0.2292,-0.2255,-0.2273,-0.2209,-0.2107,-0.2029,-0.1907,-0.1775,-0.1594,-0.1549,-0.1502,-0.1622,-0.1368,-0.1465,-0.173,-0.1716,-0.1727,-0.1736,-0.1353,-0.1347,-0.1342,-0.1338,0,-0.1917,-0.2007,-0.2046,-0.2086,-0.2089,-0.2063,-0.2033,-0.1965,-0.1957,-0.1863,-0.1712,-0.1615,-0.1431,-0.1288,-0.1174,-0.1164,-0.1383,-0.1258,-0.1557,-0.1467,-0.1422,-0.1413,-0.1435,-0.1291,-0.1296,-0.1299,-0.1302,-0.1304,-0.1786,-0.1762,-0.1849,-0.1836,-0.187,-0.1826,-0.1709,-0.169,-0.1571,-0.1413,-0.1435,-0.125,-0.1192,-0.0963,-0.0895,-0.0879,-0.1019,-0.1052,-0.1076,-0.1103,-0.1042,-0.0985,-0.0762,-0.0763,-0.0765,-0.0766,-0.0767,0,-0.1571,-0.1561,-0.1563,-0.1564,-0.1517,-0.1621,-0.1525,-0.1386,-0.1201,-0.1178,-0.1045,-0.087,-0.0752,-0.0731,-0.0631,-0.0607,-0.0695,-0.0606,-0.0754,-0.0796,-0.0835,-0.077,-0.0413,-0.0412,-0.0412,-0.0411,0,0,-0.1426,-0.134,-0.132,-0.1197,-0.1223,-0.1076,-0.0993,-0.0883,-0.081,-0.068,-0.0625,-0.0661,-0.0666,-0.0527,-0.0496,-0.0439,-0.0622,-0.0416,-0.0693,-0.0907,-0.0945,-0.1073,-0.1014,0,0,0,0,0]},{"header":{"parameterUnit":"m.s-1","parameterCategory":2,"la1":30.2991,"la2":30.254,"lo1":-89.0895,"lo2":-89.0444,"dy":0.0017,"dx":0.0017,"nx":28,"ny":28,"refTime":"2023-10-23T03:00:00:Z","depth":"2","parameterNumber":3,"parameterNumberName":"V-component_of_CURRENTS"},"data":[0,0,0,0,0,0,0,0,0,0,0,0,0,0,0,0,0,0,0,0,0,0,0,0,0,0,0,0,0,0,0,0,0,0,0,0,0,0,0,0,0,0,0,0,0,0,0,0,0,0,0,0,0,0,0,0,0,0,-0.0346,-0.0345,0,-0.0249,-0.0248,-0.0247,-0.025,-0.0251,-0.0252,-0.0253,-0.0174,-0.017,-0.0167,0,0,0,0,0,0,0,0,0,0,0,0,0,-0.0445,-0.0444,-0.0347,-0.0345,-0.0344,-0.0249,-0.0248,-0.0246,-0.0249,-0.0251,-0.0252,-0.0254,-0.0175,-0.0171,-0.0167,0,0,0,0,0,0,0,0,0,0,0,0,0,-0.0381,-0.0444,-0.0347,-0.0333,-0.0331,-0.0249,-0.0248,-0.0246,-0.0249,-0.0251,-0.0253,-0.0255,-0.0176,-0.0171,-0.0166,-0.0097,0,0,-0.0151,-0.0149,0,0,0,0,0,0,0,0,-0.0385,-0.0378,-0.0337,-0.0334,-0.0332,-0.0263,-0.0253,-0.0197,-0.0249,-0.0281,-0.0253,-0.0256,-0.0203,-0.0196,-0.0174,-0.0093,-0.009,-0.0151,-0.0148,-0.0145,-0.0144,0,0,0,0,0,0,0,-0.039,-0.0381,-0.0309,-0.0335,-0.0332,-0.0301,-0.0295,-0.0242,-0.0233,-0.0278,-0.0278,-0.0265,-0.0202,-0.0179,-0.0172,-0.0089,-0.0151,-0.0146,-0.0143,-0.0141,0.0053,0.0055,0,0,0,0,0,0,-0.0402,-0.0386,-0.0312,-0.0306,-0.0363,-0.0298,-0.0291,-0.0283,-0.0234,-0.0227,-0.0264,-0.0266,-0.0186,-0.0178,-0.017,-0.0113,-0.0145,-0.0141,-0.0138,0.0051,0.0053,0.0056,0,0,0,0,0,0,-0.0405,-0.0397,-0.0316,-0.0343,-0.033,-0.0295,-0.0286,-0.028,-0.0277,-0.0222,-0.0217,-0.0269,-0.0188,-0.0177,-0.0136,-0.0109,-0.0139,-0.0134,0.0048,0.0052,0.0055,0.0019,0,0,0,0,0,0,-0.0408,-0.0398,-0.0404,-0.0344,-0.0329,-0.0273,-0.0283,-0.0277,-0.0265,-0.0267,-0.0223,-0.0217,-0.0188,-0.0143,-0.0131,-0.0103,-0.013,0.0045,0.005,0.0054,0.0017,0.002,0.0023,0,0,0,0,0,-0.0412,-0.0402,-0.0405,-0.0397,-0.0337,-0.0272,-0.0261,-0.0243,-0.0264,-0.025,-0.023,-0.022,-0.0108,-0.0138,-0.0124,-0.0094,0.0043,0.0048,0.0053,0.0016,0.002,0.0023,0,0,0,0,0,0,-0.0439,-0.0399,-0.0402,-0.038,-0.0336,-0.0272,-0.0257,-0.025,-0.0222,-0.0236,-0.0201,-0.0191,-0.0142,-0.0105,-0.014,-0.002,-0.0025,-0.0017,-0.0058,-0.0054,-0.0051,-0.0026,-0.0126,0,0,0,0,0,-0.045,-0.0443,-0.0388,-0.0374,-0.0352,-0.0312,-0.0289,-0.0277,-0.0239,-0.023,-0.0203,-0.0159,-0.0101,-0.0075,-0.0023,0.0038,0.009,0.0074,0.0077,0.0078,0.0113,0.0215,0.023,0.0072,0.0072,0.0072,0,0,-0.0459,-0.0434,-0.0432,-0.0381,-0.0348,-0.0311,-0.0303,-0.0269,-0.0242,-0.0223,-0.0191,-0.0155,-0.0083,-0.002,0.0008,0.0007,0.0144,0.0085,0.0085,0.012,0.0222,0.0237,0.0251,0.0075,0.0075,0.0074,0,0,-0.0462,-0.0447,-0.0442,-0.0402,-0.0356,-0.0321,-0.0318,-0.0265,-0.0247,-0.0206,-0.0179,-0.0119,-0.0057,0.0019,0.0062,0.0124,0.0152,0.0126,0.0165,0.0262,0.0276,0.0289,0.0334,0.0352,0.0132,0.0132,0.0132,0,-0.0483,-0.0462,-0.0426,-0.0399,-0.0368,-0.0331,-0.0305,-0.0262,-0.021,-0.0173,-0.0204,-0.0063,-0.0021,0.0104,0.0119,0.0133,0.0166,0.0132,0.0264,0.0278,0.0292,0.0336,0.0356,0.0131,0.0131,0.0131,0.0131,0,-0.0474,-0.0456,-0.0438,-0.0402,-0.0361,-0.0327,-0.0263,-0.0228,-0.0216,-0.0168,-0.0073,-0.0007,0.0086,0.0106,0.0126,0.0257,0.0238,0.0245,0.0245,0.0306,0.0348,0.0369,0.0129,0.013,0.013,0.013,0,0,-0.0532,-0.0455,-0.0452,-0.0432,-0.0362,-0.0324,-0.0262,-0.0177,-0.0124,-0.0075,0.0005,0.0114,0.0148,0.0205,0.0248,0.0333,0.0433,0.0321,0.0327,0.0348,0.0607,0.0451,0.0458,0.0445,0.0449,0.0453,0.0581,0,-0.0544,-0.0504,-0.0454,-0.041,-0.0383,-0.0309,-0.0243,-0.0161,-0.0097,-0.001,0.0092,0.0175,0.0188,0.0223,0.0319,0.0404,0.0494,0.0396,0.0564,0.0569,0.0409,0.0481,0.0442,0.0541,0.0601,0.0605,0.0607,0,-0.057,-0.0531,-0.0499,-0.0407,-0.0385,-0.0348,-0.0232,-0.0164,-0.0013,0.0039,0.0154,0.0218,0.0364,0.0349,0.0558,0.0482,0.0559,0.0619,0.0625,0.0519,0.0454,0.0503,0.0577,0.0643,0.064,0.0637,0.0635,0,-0.066,-0.0567,-0.0547,-0.0518,-0.0405,-0.0365,-0.0296,-0.0155,-0.0086,0.0074,0.0123,0.0301,0.0368,0.0515,0.0609,0.0597,0.0805,0.0809,0.0754,0.0742,0.0768,0.0749,0.099,0.099,0.099,0.0989,0.0989,0,-0.0729,-0.0704,-0.0581,-0.0581,-0.0513,-0.0414,-0.0328,-0.0232,-0.009,-0.0006,0.0138,0.0205,0.0411,0.0529,0.0638,0.0729,0.0835,0.0787,0.0783,0.0745,0.0724,0.0868,0.0852,0.0994,0.0993,0.0992,0.0991,0,-0.0871,-0.0792,-0.0747,-0.062,-0.0572,-0.053,-0.0379,-0.0306,-0.017,-0.0061,-0.0021,0.0152,0.0269,0.044,0.0658,0.073,0.0857,0.0868,0.0767,0.0747,0.0729,0.0711,0.0858,0.0854,0.085,0.0847,0.0845,0,-0.0941,-0.0945,-0.081,-0.0758,-0.0708,-0.0608,-0.0533,-0.0375,-0.0304,-0.0118,-0.009,0.0049,0.012,0.0345,0.0497,0.0664,0.0735,0.0734,0.0721,0.0744,0.0727,0.0713,0.0699,0.0748,0.0745,0.0743,0.0741,0,-0.1065,-0.1022,-0.0975,-0.0881,-0.0801,-0.071,-0.0603,-0.0573,-0.039,-0.0308,-0.0221,-0.0152,0.0036,0.0183,0.0373,0.0467,0.0698,0.068,0.0813,0.0733,0.0637,0.0619,0.0612,0.0719,0.0721,0.0723,0.0724,0.0725,-0.1125,-0.1121,-0.1046,-0.0969,-0.088,-0.0822,-0.0775,-0.0688,-0.0617,-0.0476,-0.0384,-0.0252,-0.004,0.0156,0.0308,0.0453,0.0469,0.0576,0.0588,0.0602,0.0511,0.0409,0.0431,0.0432,0.0432,0.0433,0.0433,0,-0.1146,-0.1147,-0.1113,-0.1014,-0.0971,-0.0891,-0.0807,-0.0749,-0.0709,-0.0586,-0.0487,-0.028,-0.012,0.0087,0.0281,0.0405,0.0464,0.0434,0.0534,0.0551,0.0567,0.0481,0.0391,0.0392,0.0392,0.0393,0,0,-0.1141,-0.1129,-0.1133,-0.1093,-0.1041,-0.0948,-0.0911,-0.085,-0.0746,-0.0643,-0.0525,-0.0369,-0.0116,0.0036,0.02,0.0309,0.0398,0.0302,0.0316,0.0429,0.0445,0.0617,0.0496,0,0,0,0,0]}],[{"header":{"parameterUnit":"m.s-1","parameterCategory":2,"la1":30.2991,"la2":30.254,"lo1":-89.0895,"lo2":-89.0444,"dy":0.0017,"dx":0.0017,"nx":28,"ny":28,"refTime":"2023-10-23T03:00:00:Z","depth":"4","parameterNumber":2,"parameterNumberName":"U-component_of_CURRENTS"},"data":[0,0,0,0,0,0,0,0,0,0,0,0,0,0,0,0,0,0,0,0,0,0,0,0,0,0,0,0,0,0,0,0,0,0,0,0,0,0,0,0,0,0,0,0,0,0,0,0,0,0,0,0,0,0,0,0,0,0,-0.0628,-0.0629,0,-0.0661,-0.0661,-0.0662,-0.0686,-0.0686,-0.0687,-0.0687,-0.0711,-0.0711,-0.0712,0,0,0,0,0,0,0,0,0,0,0,0,0,-0.0631,-0.063,-0.0628,-0.0629,-0.0629,-0.0661,-0.0661,-0.0662,-0.0686,-0.0686,-0.0687,-0.0687,-0.0711,-0.0711,-0.0712,0,0,0,0,0,0,0,0,0,0,0,0,0,-0.0641,-0.063,-0.0628,-0.0647,-0.0649,-0.0661,-0.0661,-0.0662,-0.0686,-0.0686,-0.0687,-0.0687,-0.0711,-0.0711,-0.0712,-0.0703,0,0,-0.0713,-0.0713,0,0,0,0,0,0,0,0,-0.064,-0.0641,-0.0643,-0.0645,-0.0648,-0.0672,-0.0671,-0.0676,-0.0686,-0.067,-0.0687,-0.0688,-0.0698,-0.0699,-0.0702,-0.0704,-0.0705,-0.0713,-0.0713,-0.0714,-0.0714,0,0,0,0,0,0,0,-0.064,-0.064,-0.0639,-0.0644,-0.0647,-0.0669,-0.067,-0.0672,-0.0679,-0.0671,-0.0673,-0.068,-0.0699,-0.0701,-0.0703,-0.0705,-0.0713,-0.0713,-0.0714,-0.0714,-0.0815,-0.0818,0,0,0,0,0,0,-0.0636,-0.0639,-0.0638,-0.064,-0.0648,-0.0668,-0.067,-0.0662,-0.0679,-0.0683,-0.0679,-0.0681,-0.07,-0.0702,-0.0704,-0.0775,-0.0714,-0.0714,-0.0714,-0.0813,-0.0816,-0.0818,0,0,0,0,0,0,-0.0636,-0.0635,-0.0637,-0.0643,-0.0645,-0.0667,-0.0658,-0.0662,-0.0673,-0.0686,-0.0689,-0.0687,-0.0701,-0.0703,-0.0736,-0.0773,-0.0714,-0.0714,-0.081,-0.0814,-0.0817,-0.0866,0,0,0,0,0,0,-0.0635,-0.0634,-0.064,-0.0642,-0.0645,-0.0651,-0.0658,-0.0663,-0.0676,-0.0679,-0.0693,-0.0695,-0.0701,-0.0735,-0.0736,-0.0773,-0.0715,-0.0807,-0.0812,-0.0816,-0.0862,-0.0871,-0.0879,0,0,0,0,0,-0.0635,-0.0642,-0.064,-0.0641,-0.0647,-0.0652,-0.0655,-0.0672,-0.0676,-0.0683,-0.0709,-0.0695,-0.0766,-0.0737,-0.0737,-0.0775,-0.0805,-0.081,-0.0816,-0.0858,-0.0869,-0.0879,0,0,0,0,0,0,-0.0649,-0.0645,-0.0643,-0.0649,-0.0652,-0.0657,-0.0675,-0.0673,-0.0697,-0.0705,-0.0713,-0.0718,-0.0767,-0.0764,-0.0732,-0.0823,-0.0788,-0.0794,-0.082,-0.0831,-0.0839,-0.0833,-0.0715,0,0,0,0,0,-0.0652,-0.0647,-0.0651,-0.065,-0.0661,-0.0665,-0.0674,-0.0676,-0.0692,-0.0702,-0.0727,-0.0757,-0.0788,-0.0802,-0.0829,-0.0861,-0.0839,-0.0893,-0.0902,-0.0909,-0.0908,-0.0943,-0.0954,-0.0836,-0.0836,-0.0836,0,0,-0.0657,-0.0652,-0.0652,-0.0653,-0.0662,-0.0672,-0.0672,-0.0683,-0.0686,-0.07,-0.0743,-0.0785,-0.0805,-0.0859,-0.0881,-0.086,-0.0922,-0.0916,-0.0922,-0.0916,-0.095,-0.0961,-0.097,-0.084,-0.0839,-0.0839,0,0,-0.0653,-0.0662,-0.0659,-0.0664,-0.0672,-0.0682,-0.0685,-0.0706,-0.0718,-0.076,-0.0781,-0.0845,-0.0892,-0.0921,-0.0936,-0.1004,-0.0971,-0.1026,-0.1059,-0.1094,-0.1103,-0.1111,-0.1049,-0.1051,-0.1028,-0.1028,-0.1028,0,-0.0665,-0.0646,-0.066,-0.0659,-0.0665,-0.0686,-0.0686,-0.0702,-0.0733,-0.0756,-0.0785,-0.0894,-0.0921,-0.0966,-0.1018,-0.1022,-0.101,-0.1011,-0.1103,-0.1111,-0.1118,-0.1053,-0.1054,-0.1031,-0.1031,-0.103,-0.103,0,-0.0641,-0.0645,-0.0649,-0.0651,-0.0666,-0.0669,-0.0692,-0.0727,-0.0768,-0.0796,-0.0874,-0.0933,-0.0999,-0.1033,-0.1055,-0.1126,-0.1086,-0.1108,-0.1067,-0.1132,-0.1059,-0.106,-0.1035,-0.1034,-0.1033,-0.1033,0,0,-0.0617,-0.063,-0.063,-0.0632,-0.0657,-0.0662,-0.0697,-0.0731,-0.0751,-0.0839,-0.0877,-0.0989,-0.1045,-0.1067,-0.1103,-0.1152,-0.1197,-0.117,-0.117,-0.109,-0.1213,-0.1131,-0.1123,-0.1251,-0.1252,-0.1254,-0.1121,0,-0.0593,-0.0593,-0.0597,-0.0605,-0.062,-0.0653,-0.0679,-0.0719,-0.0772,-0.0829,-0.091,-0.0979,-0.1041,-0.1095,-0.1155,-0.1194,-0.1211,-0.1226,-0.1177,-0.1173,-0.1081,-0.1127,-0.126,-0.1122,-0.1122,-0.1122,-0.1122,0,-0.0557,-0.0567,-0.0575,-0.0592,-0.0599,-0.0614,-0.0664,-0.0684,-0.0765,-0.0811,-0.0904,-0.0969,-0.1059,-0.1112,-0.1182,-0.1195,-0.1215,-0.1234,-0.123,-0.1141,-0.1097,-0.1058,-0.1123,-0.1123,-0.1123,-0.1122,-0.1122,0,-0.053,-0.0541,-0.0549,-0.0555,-0.0593,-0.0609,-0.0637,-0.0704,-0.0716,-0.0814,-0.0855,-0.0954,-0.1009,-0.1083,-0.1153,-0.1183,-0.1196,-0.1224,-0.1138,-0.1127,-0.1212,-0.1206,-0.1264,-0.1264,-0.1265,-0.1265,-0.1265,0,-0.0489,-0.0489,-0.0546,-0.0547,-0.0568,-0.0601,-0.0618,-0.0666,-0.0715,-0.0749,-0.0855,-0.0892,-0.1026,-0.106,-0.1118,-0.1111,-0.1159,-0.1135,-0.111,-0.1229,-0.1226,-0.1208,-0.1204,-0.126,-0.1261,-0.1262,-0.1263,0,-0.0438,-0.0475,-0.0489,-0.0537,-0.0558,-0.0578,-0.0601,-0.0611,-0.0672,-0.0715,-0.0758,-0.0846,-0.0902,-0.096,-0.1036,-0.1038,-0.1056,-0.1036,-0.1082,-0.1062,-0.0955,-0.0955,-0.0912,-0.0908,-0.0905,-0.0903,-0.0901,0,-0.0408,-0.0417,-0.0479,-0.0498,-0.0517,-0.0548,-0.0567,-0.061,-0.0618,-0.069,-0.0709,-0.0771,-0.0837,-0.0817,-0.0907,-0.0919,-0.0948,-0.0903,-0.1017,-0.095,-0.093,-0.0934,-0.0938,-0.0896,-0.0896,-0.0895,-0.0894,0,-0.0355,-0.0388,-0.0405,-0.0457,-0.0486,-0.049,-0.0521,-0.0519,-0.0581,-0.0624,-0.0665,-0.0708,-0.0725,-0.078,-0.077,-0.0809,-0.0917,-0.0873,-0.0881,-0.0988,-0.093,-0.0914,-0.0922,-0.0884,-0.0885,-0.0886,-0.0887,0,-0.0324,-0.0332,-0.0381,-0.0405,-0.0434,-0.0442,-0.0457,-0.0478,-0.0496,-0.0585,-0.0594,-0.0665,-0.0719,-0.0717,-0.0732,-0.0735,-0.076,-0.0766,-0.078,-0.0792,-0.0827,-0.0742,-0.0611,0,0,0,0,0,-0.0293,-0.03,-0.0324,-0.0356,-0.0364,-0.0382,-0.0429,-0.0448,-0.0512,-0.0526,-0.0559,-0.0594,-0.0626,-0.0649,-0.0636,-0.0681,-0.0754,-0.0662,-0.0766,-0.0827,-0.0839,-0.0899,0,0,0,0,0,0,-0.0287,-0.0305,-0.0316,-0.0302,-0.0292,-0.0307,-0.0336,-0.0383,-0.0392,-0.0466,-0.0482,-0.054,-0.057,-0.0613,-0.0613,-0.0621,-0.0675,-0.0696,-0.0694,-0.0821,-0.0831,-0.0841,-0.0907,0,0,0,0,0]},{"header":{"parameterUnit":"m.s-1","parameterCategory":2,"la1":30.2991,"la2":30.254,"lo1":-89.0895,"lo2":-89.0444,"dy":0.0017,"dx":0.0017,"nx":28,"ny":28,"refTime":"2023-10-23T03:00:00:Z","depth":"4","parameterNumber":3,"parameterNumberName":"V-component_of_CURRENTS"},"data":[0,0,0,0,0,0,0,0,0,0,0,0,0,0,0,0,0,0,0,0,0,0,0,0,0,0,0,0,0,0,0,0,0,0,0,0,0,0,0,0,0,0,0,0,0,0,0,0,0,0,0,0,0,0,0,0,0,0,-0.0498,-0.0498,0,-0.0524,-0.0524,-0.0524,-0.0494,-0.0493,-0.0492,-0.0491,-0.0523,-0.0525,-0.0527,0,0,0,0,0,0,0,0,0,0,0,0,0,-0.0424,-0.0425,-0.0497,-0.0498,-0.0498,-0.0524,-0.0524,-0.0524,-0.0494,-0.0493,-0.0492,-0.049,-0.0523,-0.0525,-0.0527,0,0,0,0,0,0,0,0,0,0,0,0,0,-0.0452,-0.0426,-0.0497,-0.0487,-0.0487,-0.0524,-0.0524,-0.0524,-0.0494,-0.0493,-0.0491,-0.049,-0.0522,-0.0525,-0.0527,-0.0575,0,0,-0.0536,-0.0537,0,0,0,0,0,0,0,0,-0.0451,-0.0455,-0.0488,-0.0488,-0.0487,-0.0505,-0.051,-0.0542,-0.0495,-0.049,-0.0491,-0.0489,-0.052,-0.0523,-0.0529,-0.0577,-0.0578,-0.0536,-0.0538,-0.0539,-0.054,0,0,0,0,0,0,0,-0.0449,-0.0454,-0.0507,-0.0489,-0.0488,-0.0482,-0.0484,-0.0516,-0.0513,-0.0491,-0.0489,-0.0494,-0.0519,-0.0527,-0.053,-0.0579,-0.0536,-0.0538,-0.054,-0.0541,-0.0679,-0.0681,0,0,0,0,0,0,-0.045,-0.0452,-0.0506,-0.0508,-0.0466,-0.0485,-0.0487,-0.05,-0.0512,-0.0513,-0.0495,-0.0492,-0.0523,-0.0527,-0.0531,-0.0613,-0.0539,-0.0541,-0.0543,-0.0677,-0.068,-0.0682,0,0,0,0,0,0,-0.0448,-0.0455,-0.0505,-0.0481,-0.0487,-0.0488,-0.0502,-0.0501,-0.0508,-0.0516,-0.0516,-0.0503,-0.0522,-0.0527,-0.0569,-0.0613,-0.0543,-0.0545,-0.0675,-0.0678,-0.0681,-0.0761,0,0,0,0,0,0,-0.0446,-0.0454,-0.0467,-0.0481,-0.0488,-0.0537,-0.0504,-0.0503,-0.0514,-0.0511,-0.0523,-0.0524,-0.0521,-0.0565,-0.0572,-0.0615,-0.0547,-0.0672,-0.0676,-0.068,-0.0756,-0.0767,-0.0776,0,0,0,0,0,-0.0444,-0.0472,-0.0468,-0.0475,-0.0505,-0.0538,-0.0542,-0.0536,-0.0516,-0.0533,-0.054,-0.0524,-0.0594,-0.057,-0.0577,-0.0622,-0.0671,-0.0675,-0.068,-0.0752,-0.0765,-0.0776,0,0,0,0,0,0,-0.0451,-0.0472,-0.0468,-0.0502,-0.0521,-0.0533,-0.0553,-0.0544,-0.0563,-0.056,-0.0554,-0.0558,-0.061,-0.0608,-0.0581,-0.0672,-0.0629,-0.0635,-0.0681,-0.0693,-0.0703,-0.0695,-0.055,0,0,0,0,0,-0.0459,-0.0483,-0.0501,-0.053,-0.0543,-0.0548,-0.056,-0.0558,-0.0574,-0.0579,-0.0594,-0.061,-0.0638,-0.0656,-0.068,-0.0736,-0.069,-0.0768,-0.0778,-0.0786,-0.0786,-0.0756,-0.0762,-0.0697,-0.0697,-0.0697,0,0,-0.0475,-0.0486,-0.0503,-0.0533,-0.0547,-0.0582,-0.0552,-0.0581,-0.0604,-0.0584,-0.0633,-0.0649,-0.066,-0.0719,-0.0742,-0.0721,-0.078,-0.0792,-0.0799,-0.0794,-0.0761,-0.0767,-0.0772,-0.07,-0.0699,-0.0699,0,0,-0.0516,-0.0526,-0.056,-0.0579,-0.0604,-0.0613,-0.0623,-0.0648,-0.0653,-0.0705,-0.0694,-0.0729,-0.0783,-0.0795,-0.0807,-0.0887,-0.0832,-0.0905,-0.0953,-0.0925,-0.0929,-0.0932,-0.0872,-0.0869,-0.0911,-0.0911,-0.0911,0,-0.0529,-0.057,-0.0577,-0.0611,-0.0631,-0.0629,-0.0669,-0.0685,-0.0721,-0.0733,-0.073,-0.0802,-0.0816,-0.0866,-0.0902,-0.0908,-0.0871,-0.0906,-0.0935,-0.0937,-0.0939,-0.0876,-0.0872,-0.0916,-0.0915,-0.0915,-0.0914,0,-0.0597,-0.0624,-0.0649,-0.0689,-0.0716,-0.075,-0.077,-0.0798,-0.0808,-0.0821,-0.0876,-0.0898,-0.0931,-0.0957,-0.0961,-0.0999,-0.096,-0.0947,-0.0899,-0.095,-0.0881,-0.0875,-0.0922,-0.092,-0.0919,-0.0918,0,0,-0.0624,-0.0683,-0.0689,-0.0708,-0.0753,-0.0778,-0.0828,-0.0866,-0.0875,-0.0929,-0.095,-0.1026,-0.1025,-0.1038,-0.1046,-0.1043,-0.1032,-0.1015,-0.1012,-0.0943,-0.0945,-0.0851,-0.0834,-0.1025,-0.1025,-0.1025,-0.0886,0,-0.0666,-0.0732,-0.0757,-0.0818,-0.0849,-0.0865,-0.0905,-0.0937,-0.095,-0.0973,-0.1,-0.1032,-0.1057,-0.1073,-0.1079,-0.1041,-0.1023,-0.1069,-0.0916,-0.091,-0.0811,-0.0827,-0.1025,-0.0882,-0.088,-0.0879,-0.0878,0,-0.0717,-0.0745,-0.0817,-0.0856,-0.0873,-0.0918,-0.0952,-0.0987,-0.1014,-0.1022,-0.1058,-0.106,-0.109,-0.1087,-0.1045,-0.1074,-0.1023,-0.0986,-0.0979,-0.0857,-0.0805,-0.0823,-0.0866,-0.0867,-0.0868,-0.0869,-0.087,0,-0.0714,-0.0781,-0.0833,-0.0853,-0.091,-0.0944,-0.098,-0.1011,-0.1011,-0.1051,-0.1036,-0.1075,-0.1059,-0.104,-0.0977,-0.1013,-0.0883,-0.0909,-0.0769,-0.076,-0.0848,-0.0846,-0.086,-0.086,-0.0861,-0.0861,-0.0861,0,-0.0733,-0.077,-0.0837,-0.0861,-0.0905,-0.0955,-0.0984,-0.1018,-0.1029,-0.1018,-0.1061,-0.103,-0.1047,-0.0976,-0.095,-0.0818,-0.0851,-0.0766,-0.0721,-0.0885,-0.0889,-0.0842,-0.0842,-0.0856,-0.0857,-0.0858,-0.0859,0,-0.0724,-0.0771,-0.0821,-0.0887,-0.0907,-0.0944,-0.0975,-0.098,-0.1,-0.0977,-0.0989,-0.0972,-0.0894,-0.0854,-0.0777,-0.0739,-0.0653,-0.0592,-0.073,-0.0696,-0.0559,-0.0565,-0.0444,-0.0439,-0.0436,-0.0432,-0.043,0,-0.073,-0.0758,-0.0829,-0.0848,-0.0883,-0.0926,-0.0944,-0.0975,-0.0964,-0.0926,-0.0906,-0.0829,-0.081,-0.0607,-0.0598,-0.0496,-0.0493,-0.0438,-0.0561,-0.0549,-0.0518,-0.053,-0.0541,-0.0424,-0.0423,-0.0422,-0.0421,0,-0.0721,-0.0756,-0.0789,-0.0831,-0.0863,-0.0881,-0.091,-0.0885,-0.09,-0.0889,-0.0797,-0.0727,-0.0606,-0.0548,-0.0436,-0.0387,-0.0486,-0.04,-0.041,-0.0525,-0.0524,-0.0499,-0.0514,-0.0408,-0.041,-0.0411,-0.0412,0,-0.0711,-0.0725,-0.0772,-0.0806,-0.0838,-0.0853,-0.0862,-0.0835,-0.0817,-0.0774,-0.073,-0.0647,-0.0607,-0.0481,-0.0395,-0.0318,-0.0338,-0.035,-0.0363,-0.0377,-0.0418,-0.0411,-0.0209,0,0,0,0,0,-0.0696,-0.0709,-0.0739,-0.0773,-0.0806,-0.0831,-0.0845,-0.0847,-0.083,-0.0747,-0.0735,-0.0629,-0.0488,-0.0443,-0.0346,-0.0364,-0.0348,-0.025,-0.0374,-0.0336,-0.0351,-0.0405,0,0,0,0,0,0,-0.0679,-0.0711,-0.0729,-0.0749,-0.0765,-0.0796,-0.0811,-0.0803,-0.0753,-0.0722,-0.0647,-0.0595,-0.0469,-0.0532,-0.0338,-0.0317,-0.0381,-0.0188,-0.0186,-0.0328,-0.0341,-0.0353,-0.0414,0,0,0,0,0]}]]